Location: Colonia Mina de C?rbuni
(46.1667°N, 22.7167°E)
Time: 07:40:09
(UTC+00:00)

Vanguard 3 - Pass Details

Date: 20 April 2024
Orbit: 509 x 3232 km, 33.3° (Epoch: 29 May)

Event Time Altitude Azimuth Distance (km) Brightness Sun altitude
Exits shadow 23:59:01 17° 157° (SSE) 4,669 10.6 -28.4°
Maximum altitude 00:00:30 17° 150° (SSE) 4,538 10.6 -28.3°
Drops below altitude 10° 00:07:53 10° 115° (ESE) 4,474 10.9 -27.7°
Sets 00:12:26 0° 97° (E) 4,984 11.5 -27.3°
